QPF
0.08 0.07 0.06 0.07 0.08 0.08 0.05 0.03 0.04 0.05 0.05 0.04 0.03 0.02 0.02 0.02 0.02 0.02 0.02 0.02 0.03 0.03 0.03 0.03 0.03 0.03 0.03 0.03 0.03 0.03 0.03 0.03 0.03 0.03 0.04 0.04 0.06 0.06 0.06 0.08 0.08 0.06 0.04
0.06 0.06 0.07 0.08 0.08 0.08 0.05 0.03 0.03 0.03 0.03 0.03 0.03 0.02 0.01 0.02 0.02 0.02 0.01 0.01 0.01 0.01 0.01 0.02 0.03 0.03 0.04 0.04 0.04 0.03 0.03 0.03 0.03 0.04 0.04 0.04 0.06 0.08 0.08 0.08 0.07 0.06 0.05
0.05 0.05 0.06 0.07 0.08 0.08 0.06 0.06 0.06 0.06 0.05 0.03 0.02 0.01 0.01 0.01 0.01 0.01 0.01 0.01 0.01 0.01 0.01 0.01 0.01 0.02 0.03 0.04 0.03 0.03 0.03 0.02 0.03 0.03 0.04 0.05 0.07 0.08 0.10 0.09 0.07 0.07 0.05
0.04 0.04 0.04 0.05 0.08 0.08 0.05 0.04 0.05 0.06 0.05 0.03 0.03 0.01 0.01 0.00 0.00 0.00 0.00 0.01 0.01 0.01 0.01 0.01 0.01 0.01 0.02 0.02 0.03 0.04 0.04 0.04 0.04 0.03 0.03 0.04 0.07 0.07 0.07 0.08 0.09 0.08 0.06
0.04 0.03 0.03 0.04 0.08 0.08 0.04 0.02 0.02 0.04 0.05 0.04 0.02 0.01 0.01 0.00 0.00 0.00 0.01 0.01 0.01 0.01 0.01 0.02 0.01 0.01 0.01 0.02 0.02 0.02 0.03 0.03 0.03 0.04 0.05 0.06 0.09 0.07 0.07 0.07 0.07 0.07 0.06
0.03 0.03 0.03 0.04 0.06 0.06 0.03 0.01 0.01 0.01 0.03 0.03 0.03 0.02 0.01 0.00 0.00 0.00 0.01 0.02 0.02 0.01 0.01 0.01 0.02 0.02 0.02 0.02 0.01 0.01 0.01 0.02 0.03 0.04 0.04 0.05 0.08 0.07 0.06 0.06 0.05 0.04 0.05
0.02 0.03 0.03 0.04 0.03 0.02 0.02 0.01 0.01 0.02 0.02 0.02 0.02 0.01 0.01 0.01 0.01 0.01 0.01 0.02 0.02 0.02 0.02 0.02 0.01 0.01 0.02 0.02 0.02 0.01 0.01 0.01 0.01 0.02 0.02 0.03 0.03 0.03 0.03 0.04 0.04 0.04 0.04
0.02 0.02 0.03 0.03 0.02 0.01 0.01 0.01 0.02 0.02 0.01 0.01 0.01 0.02 0.02 0.02 0.02 0.02 0.02 0.03 0.03 0.03 0.02 0.02 0.02 0.02 0.02 0.02 0.02 0.02 0.01 0.01 0.01 0.02 0.02 0.03 0.03 0.03 0.03 0.03 0.03 0.03 0.04
0.02 0.02 0.01 0.02 0.02 0.01 0.01 0.01 0.01 0.01 0.01 0.01 0.01 0.01 0.03 0.02 0.02 0.02 0.02 0.02 0.02 0.02 0.01 0.02 0.02 0.02 0.02 0.01 0.01 0.01 0.01 0.01 0.01 0.01 0.01 0.02 0.02 0.02 0.02 0.03 0.04 0.04 0.04
0.01 0.01 0.01 0.03 0.02 0.01 0.01 0.01 0.01 0.01 0.01 0.01 0.01 0.01 0.02 0.03 0.02 0.02 0.02 0.01 0.01 0.01 0.01 0.01 0.02 0.02 0.03 0.02 0.01 0.01 0.01 0.01 0.02 0.02 0.02 0.02 0.02 0.02 0.02 0.03 0.04 0.05 0.05
0.00 0.00 0.02 0.03 0.02 0.01 0.01 0.01 0.01 0.01 0.01 0.01 0.02 0.03 0.04 0.04 0.03 0.03 0.03 0.02 0.01 0.01 0.01 0.01 0.02 0.02 0.02 0.03 0.02 0.01 0.01 0.02 0.02 0.02 0.03 0.03 0.03 0.04 0.04 0.04 0.05 0.06 0.07
0.00 0.01 0.01 0.03 0.02 0.02 0.01 0.01 0.02 0.02 0.02 0.03 0.03 0.04 0.04 0.04 0.04 0.04 0.03 0.02 0.02 0.02 0.02 0.02 0.03 0.02 0.02 0.02 0.02 0.01 0.01 0.01 0.01 0.02 0.03 0.03 0.04 0.04 0.05 0.06 0.07 0.08 0.08
0.01 0.02 0.03 0.04 0.03 0.02 0.02 0.02 0.02 0.03 0.04 0.04 0.04 0.03 0.02 0.02 0.02 0.02 0.02 0.02 0.02 0.02 0.02 0.03 0.03 0.03 0.03 0.02 0.02 0.02 0.02 0.01 0.02 0.02 0.02 0.03 0.04 0.04 0.04 0.04 0.06 0.09 0.10
0.02 0.03 0.03 0.02 0.02 0.02 0.02 0.02 0.02 0.03 0.02 0.02 0.03 0.03 0.03 0.02 0.02 0.02 0.01 0.01 0.01 0.02 0.02 0.02 0.03 0.03 0.03 0.02 0.03 0.03 0.03 0.03 0.03 0.03 0.02 0.03 0.03 0.04 0.05 0.04 0.05 0.06 0.06
0.01 0.02 0.03 0.02 0.02 0.02 0.02 0.01 0.01 0.01 0.01 0.02 0.05 0.06 0.04 0.02 0.02 0.02 0.01 0.01 0.01 0.01 0.01 0.02 0.03 0.03 0.03 0.02 0.03 0.03 0.04 0.04 0.04 0.03 0.03 0.03 0.03 0.04 0.04 0.04 0.04 0.04 0.05
0.01 0.02 0.03 0.02 0.02 0.01 0.01 0.01 0.01 0.01 0.01 0.01 0.02 0.03 0.03 0.03 0.02 0.02 0.03 0.02 0.02 0.02 0.02 0.03 0.03 0.02 0.02 0.02 0.02 0.03 0.03 0.03 0.04 0.04 0.04 0.04 0.03 0.03 0.03 0.04 0.04 0.04 0.05
0.01 0.01 0.02 0.02 0.02 0.01 0.01 0.01 0.01 0.01 0.01 0.01 0.01 0.03 0.03 0.03 0.03 0.03 0.04 0.04 0.03 0.03 0.03 0.03 0.02 0.02 0.01 0.01 0.01 0.02 0.02 0.02 0.03 0.03 0.03 0.03 0.03 0.03 0.04 0.04 0.04 0.05 0.04
0.01 0.01 0.01 0.01 0.02 0.02 0.01 0.01 0.01 0.01 0.01 0.01 0.03 0.04 0.03 0.02 0.01 0.02 0.03 0.03 0.03 0.02 0.02 0.02 0.01 0.01 0.01 0.01 0.01 0.01 0.02 0.02 0.03 0.03 0.04 0.03 0.03 0.03 0.03 0.03 0.03 0.03 0.03
0.01 0.01 0.01 0.01 0.02 0.02 0.02 0.02 0.02 0.03 0.03 0.03 0.03 0.03 0.02 0.01 0.01 0.01 0.02 0.02 0.02 0.02 0.02 0.01 0.01 0.02 0.02 0.02 0.02 0.02 0.02 0.02 0.02 0.03 0.03 0.04 0.04 0.03 0.03 0.02 0.02 0.02 0.02
0.00 0.00 0.00 0.01 0.02 0.02 0.02 0.02 0.02 0.02 0.02 0.02 0.01 0.01 0.01 0.01 0.01 0.01 0.01 0.01 0.01 0.01 0.01 0.01 0.01 0.01 0.02 0.01 0.01 0.01 0.01 0.01 0.01 0.02 0.02 0.03 0.03 0.04 0.03 0.03 0.03 0.02 0.02
0.00 0.00 0.00 0.01 0.01 0.02 0.01 0.01 0.00 0.00 0.01 0.01 0.01 0.01 0.01 0.01 0.01 0.01 0.01 0.01 0.01 0.01 0.01 0.01 0.01 0.01 0.01 0.01 0.00 0.00 0.01 0.01 0.01 0.01 0.01 0.01 0.02 0.02 0.03 0.03 0.03 0.02 0.02
0.00 0.00 0.01 0.01 0.01 0.01 0.01 0.00 0.00 0.00 0.01 0.00 0.00 0.01 0.01 0.01 0.00 0.00 0.00 0.00 0.01 0.01 0.01 0.00 0.00 0.01 0.01 0.01 0.00 0.00 0.00 0.00 0.01 0.01 0.01 0.01 0.01 0.01 0.02 0.02 0.03 0.03 0.02
0.00 0.00 0.01 0.00 0.00 0.00 0.00 0.00 0.00 0.00 0.00 0.00 0.00 0.00 0.01 0.01 0.00 0.00 0.00 0.01 0.01 0.01 0.01 0.01 0.01 0.01 0.00 0.00 0.00 0.00 0.00 0.00 0.00 0.00 0.00 0.00 0.01 0.01 0.01 0.01 0.02 0.02 0.02
0.00 0.00 0.01 0.00 0.00 0.00 0.00 0.00 0.00 0.00 0.00 0.00 0.00 0.00 0.00 0.00 0.00 0.01 0.01 0.01 0.01 0.01 0.01 0.01 0.01 0.01 0.00 0.00 0.00 0.00 0.00 0.00 0.00 0.00 0.00 0.00 0.00 0.01 0.01 0.01 0.01 0.01 0.01
0.00 0.00 0.00 0.00 0.00 0.00 0.00 0.00 0.00 0.00 0.00 0.00 0.00 0.00 0.00 0.00 0.01 0.01 0.01 0.01 0.01 0.01 0.01 0.00 0.00 0.00 0.01 0.00 0.00 0.00 0.00 0.00 0.00 0.00 0.00 0.00 0.00 0.00 0.01 0.01 0.01 0.02 0.01
0.00 0.00 0.00 0.00 0.00 0.00 0.00 0.00 0.00 0.00 0.00 0.00 0.00 0.00 0.00 0.01 0.01 0.01 0.01 0.01 0.01 0.01 0.01 0.00 0.00 0.00 0.00 0.00 0.00 0.00 0.00 0.00 0.00 0.01 0.01 0.00 0.00 0.00 0.01 0.01 0.01 0.02 0.01
MSLP
1011.77 1011.91 1012.06 1012.12 1012.06 1011.83 1011.46 1010.98 1010.45 1009.92 1009.43 1009.03 1008.70 1008.43 1008.20 1007.96 1007.69 1007.39 1007.06 1006.73 1006.44 1006.23 1006.13 1006.16 1006.31 1006.56 1006.89 1007.26 1007.62 1007.95 1008.23 1008.47 1008.67 1008.86 1009.05 1009.29 1009.58 1009.95 1010.39 1010.90 1011.47 1012.07 1012.68
1011.68 1011.78 1011.89 1011.95 1011.91 1011.72 1011.40 1010.97 1010.47 1009.95 1009.46 1009.03 1008.67 1008.35 1008.06 1007.78 1007.48 1007.16 1006.83 1006.50 1006.22 1006.01 1005.91 1005.93 1006.07 1006.31 1006.62 1006.97 1007.33 1007.67 1007.98 1008.25 1008.49 1008.72 1008.96 1009.23 1009.56 1009.94 1010.38 1010.89 1011.43 1012.01 1012.59
1011.68 1011.71 1011.77 1011.81 1011.76 1011.59 1011.31 1010.92 1010.47 1010.00 1009.53 1009.11 1008.73 1008.39 1008.07 1007.76 1007.44 1007.12 1006.78 1006.47 1006.20 1006.00 1005.90 1005.91 1006.03 1006.25 1006.54 1006.88 1007.23 1007.57 1007.89 1008.18 1008.46 1008.73 1009.01 1009.31 1009.66 1010.05 1010.48 1010.96 1011.46 1011.99 1012.52
1011.82 1011.77 1011.76 1011.74 1011.66 1011.49 1011.24 1010.90 1010.51 1010.08 1009.66 1009.26 1008.89 1008.55 1008.23 1007.91 1007.59 1007.26 1006.94 1006.63 1006.38 1006.20 1006.11 1006.12 1006.23 1006.42 1006.69 1007.00 1007.34 1007.67 1007.99 1008.30 1008.60 1008.90 1009.20 1009.52 1009.87 1010.25 1010.66 1011.10 1011.54 1012.00 1012.46
1012.08 1011.95 1011.86 1011.76 1011.64 1011.46 1011.22 1010.92 1010.58 1010.22 1009.85 1009.49 1009.15 1008.83 1008.51 1008.19 1007.88 1007.56 1007.25 1006.97 1006.73 1006.57 1006.49 1006.51 1006.61 1006.80 1007.04 1007.33 1007.64 1007.96 1008.27 1008.58 1008.88 1009.19 1009.50 1009.82 1010.16 1010.52 1010.88 1011.26 1011.63 1012.01 1012.37
1012.43 1012.22 1012.04 1011.87 1011.69 1011.49 1011.26 1010.99 1010.70 1010.39 1010.08 1009.77 1009.47 1009.16 1008.86 1008.55 1008.24 1007.94 1007.65 1007.39 1007.19 1007.05 1006.99 1007.02 1007.13 1007.31 1007.54 1007.80 1008.09 1008.38 1008.68 1008.97 1009.26 1009.55 1009.84 1010.15 1010.46 1010.78 1011.09 1011.40 1011.70 1011.98 1012.26
1012.80 1012.53 1012.27 1012.04 1011.81 1011.58 1011.35 1011.11 1010.86 1010.61 1010.34 1010.08 1009.80 1009.52 1009.23 1008.93 1008.62 1008.33 1008.06 1007.83 1007.65 1007.55 1007.52 1007.58 1007.70 1007.88 1008.10 1008.35 1008.61 1008.88 1009.14 1009.40 1009.65 1009.91 1010.18 1010.44 1010.71 1010.98 1011.24 1011.48 1011.71 1011.91 1012.10
1013.12 1012.81 1012.51 1012.22 1011.96 1011.72 1011.49 1011.27 1011.06 1010.84 1010.62 1010.38 1010.13 1009.86 1009.57 1009.27 1008.97 1008.69 1008.43 1008.23 1008.09 1008.02 1008.03 1008.11 1008.25 1008.44 1008.67 1008.90 1009.14 1009.37 1009.59 1009.80 1010.02 1010.23 1010.44 1010.66 1010.88 1011.10 1011.30 1011.49 1011.65 1011.79 1011.91
1013.38 1013.04 1012.72 1012.41 1012.13 1011.89 1011.67 1011.48 1011.29 1011.11 1010.91 1010.70 1010.45 1010.18 1009.89 1009.59 1009.29 1009.00 1008.76 1008.58 1008.47 1008.44 1008.48 1008.59 1008.76 1008.96 1009.18 1009.41 1009.62 1009.81 1009.99 1010.15 1010.30 1010.46 1010.62 1010.78 1010.95 1011.12 1011.28 1011.43 1011.55 1011.65 1011.72
1013.57 1013.23 1012.90 1012.59 1012.32 1012.09 1011.89 1011.72 1011.56 1011.41 1011.23 1011.03 1010.79 1010.52 1010.22 1009.91 1009.60 1009.32 1009.09 1008.92 1008.83 1008.83 1008.90 1009.04 1009.22 1009.43 1009.65 1009.85 1010.03 1010.18 1010.31 1010.41 1010.51 1010.60 1010.71 1010.82 1010.95 1011.08 1011.21 1011.33 1011.43 1011.51 1011.56
1013.72 1013.39 1013.07 1012.78 1012.53 1012.32 1012.15 1012.01 1011.88 1011.75 1011.60 1011.41 1011.18 1010.91 1010.61 1010.29 1009.98 1009.70 1009.47 1009.31 1009.24 1009.25 1009.33 1009.47 1009.66 1009.86 1010.06 1010.23 1010.38 1010.48 1010.56 1010.60 1010.64 1010.68 1010.73 1010.80 1010.89 1011.00 1011.11 1011.22 1011.32 1011.39 1011.44
1013.86 1013.55 1013.25 1012.98 1012.76 1012.58 1012.44 1012.34 1012.24 1012.14 1012.01 1011.84 1011.63 1011.37 1011.08 1010.77 1010.46 1010.19 1009.96 1009.80 1009.72 1009.72 1009.80 1009.92 1010.09 1010.26 1010.43 1010.56 1010.66 1010.72 1010.74 1010.74 1010.72 1010.72 1010.73 1010.76 1010.82 1010.91 1011.02 1011.13 1011.23 1011.32 1011.38
1013.99 1013.70 1013.42 1013.18 1012.99 1012.84 1012.74 1012.67 1012.60 1012.54 1012.44 1012.31 1012.13 1011.90 1011.64 1011.35 1011.06 1010.79 1010.56 1010.39 1010.30 1010.27 1010.31 1010.40 1010.51 1010.64 1010.75 1010.83 1010.88 1010.89 1010.86 1010.82 1010.77 1010.72 1010.71 1010.72 1010.76 1010.84 1010.95 1011.06 1011.18 1011.27 1011.34
1014.13 1013.84 1013.58 1013.35 1013.18 1013.06 1012.99 1012.95 1012.93 1012.90 1012.85 1012.77 1012.64 1012.46 1012.24 1011.99 1011.72 1011.46 1011.24 1011.05 1010.92 1010.85 1010.83 1010.85 1010.90 1010.95 1011.00 1011.03 1011.02 1010.99 1010.93 1010.85 1010.78 1010.71 1010.68 1010.68 1010.72 1010.79 1010.89 1011.01 1011.12 1011.23 1011.30
1014.23 1013.94 1013.68 1013.46 1013.30 1013.20 1013.14 1013.13 1013.14 1013.16 1013.17 1013.14 1013.08 1012.96 1012.80 1012.59 1012.36 1012.13 1011.89 1011.68 1011.51 1011.38 1011.29 1011.23 1011.19 1011.17 1011.15 1011.12 1011.07 1011.00 1010.92 1010.83 1010.75 1010.68 1010.64 1010.64 1010.67 1010.74 1010.83 1010.94 1011.04 1011.14 1011.20
1014.26 1013.96 1013.69 1013.47 1013.31 1013.20 1013.16 1013.16 1013.21 1013.26 1013.32 1013.36 1013.36 1013.31 1013.22 1013.07 1012.88 1012.65 1012.42 1012.18 1011.96 1011.76 1011.59 1011.45 1011.34 1011.24 1011.16 1011.08 1010.99 1010.91 1010.82 1010.73 1010.66 1010.60 1010.57 1010.57 1010.60 1010.65 1010.72 1010.81 1010.89 1010.96 1011.00
1014.21 1013.90 1013.61 1013.37 1013.19 1013.08 1013.03 1013.04 1013.10 1013.19 1013.29 1013.38 1013.45 1013.46 1013.42 1013.33 1013.17 1012.96 1012.72 1012.46 1012.19 1011.93 1011.69 1011.48 1011.30 1011.14 1011.01 1010.90 1010.80 1010.72 1010.64 1010.58 1010.52 1010.48 1010.46 1010.46 1010.47 1010.50 1010.55 1010.59 1010.64 1010.66 1010.67
1014.09 1013.75 1013.45 1013.19 1012.98 1012.85 1012.78 1012.79 1012.85 1012.96 1013.09 1013.22 1013.32 1013.39 1013.39 1013.33 1013.21 1013.01 1012.77 1012.48 1012.18 1011.87 1011.58 1011.31 1011.08 1010.89 1010.73 1010.61 1010.52 1010.45 1010.40 1010.36 1010.33 1010.31 1010.29 1010.28 1010.28 1010.28 1010.28 1010.28 1010.27 1010.25 1010.21
1013.93 1013.58 1013.26 1012.97 1012.74 1012.58 1012.49 1012.48 1012.53 1012.63 1012.77 1012.91 1013.04 1013.13 1013.16 1013.12 1013.01 1012.82 1012.57 1012.27 1011.94 1011.61 1011.28 1010.99 1010.74 1010.53 1010.37 1010.26 1010.19 1010.15 1010.12 1010.11 1010.10 1010.09 1010.07 1010.05 1010.01 1009.98 1009.93 1009.87 1009.81 1009.74 1009.66
1013.79 1013.44 1013.10 1012.80 1012.55 1012.36 1012.24 1012.19 1012.22 1012.30 1012.42 1012.55 1012.68 1012.77 1012.80 1012.76 1012.65 1012.46 1012.21 1011.90 1011.56 1011.22 1010.89 1010.59 1010.34 1010.15 1010.01 1009.92 1009.87 1009.85 1009.85 1009.86 1009.85 1009.84 1009.80 1009.75 1009.68 1009.59 1009.50 1009.39 1009.28 1009.17 1009.06
1013.72 1013.38 1013.04 1012.73 1012.46 1012.24 1012.09 1012.02 1012.00 1012.05 1012.13 1012.24 1012.33 1012.40 1012.41 1012.36 1012.23 1012.04 1011.78 1011.47 1011.14 1010.81 1010.49 1010.21 1009.99 1009.81 1009.70 1009.64 1009.61 1009.61 1009.61 1009.61 1009.60 1009.55 1009.49 1009.39 1009.28 1009.14 1009.00 1008.86 1008.72 1008.58 1008.45
1013.76 1013.43 1013.10 1012.79 1012.51 1012.28 1012.10 1011.99 1011.93 1011.93 1011.97 1012.02 1012.07 1012.09 1012.07 1011.99 1011.84 1011.63 1011.37 1011.07 1010.76 1010.44 1010.16 1009.91 1009.71 1009.57 1009.48 1009.44 1009.42 1009.41 1009.40 1009.38 1009.32 1009.24 1009.12 1008.98 1008.81 1008.64 1008.46 1008.29 1008.14 1008.00 1007.88
1013.88 1013.58 1013.27 1012.97 1012.69 1012.45 1012.25 1012.10 1012.01 1011.96 1011.94 1011.94 1011.93 1011.90 1011.82 1011.71 1011.53 1011.31 1011.04 1010.76 1010.46 1010.18 1009.92 1009.71 1009.54 1009.43 1009.35 1009.31 1009.28 1009.25 1009.20 1009.13 1009.02 1008.88 1008.70 1008.50 1008.29 1008.08 1007.89 1007.71 1007.57 1007.45 1007.36
1014.03 1013.77 1013.48 1013.20 1012.93 1012.68 1012.47 1012.30 1012.17 1012.07 1012.00 1011.94 1011.87 1011.78 1011.66 1011.50 1011.30 1011.06 1010.79 1010.51 1010.23 1009.98 1009.75 1009.57 1009.43 1009.32 1009.25 1009.19 1009.14 1009.07 1008.97 1008.84 1008.66 1008.46 1008.22 1007.97 1007.72 1007.48 1007.28 1007.11 1006.99 1006.91 1006.87
1014.13 1013.90 1013.65 1013.39 1013.13 1012.89 1012.67 1012.48 1012.32 1012.18 1012.06 1011.95 1011.83 1011.68 1011.51 1011.31 1011.08 1010.83 1010.55 1010.28 1010.02 1009.78 1009.58 1009.42 1009.29 1009.19 1009.11 1009.04 1008.95 1008.83 1008.67 1008.48 1008.24 1007.97 1007.67 1007.38 1007.10 1006.85 1006.64 1006.49 1006.40 1006.36 1006.36
1014.08 1013.89 1013.67 1013.44 1013.20 1012.97 1012.75 1012.55 1012.37 1012.20 1012.04 1011.88 1011.71 1011.53 1011.31 1011.08 1010.82 1010.54 1010.26 1009.99 1009.74 1009.52 1009.33 1009.18 1009.06 1008.96 1008.87 1008.77 1008.65 1008.49 1008.29 1008.04 1007.75 1007.42 1007.09 1006.75 1006.45 1006.19 1005.98 1005.85 1005.77 1005.76 1005.80
Thickness
5676 5674 5671 5668 5665 5662 5659 5657 5654 5652 5650 5649 5647 5644 5642 5640 5638 5636 5635 5632 5630 5628 5626 5624 5621 5620 5618 5618 5616 5614 5612 5611 5609 5613 5614 5613 5611 5609 5609 5608 5609 5609 5610
5672 5669 5666 5663 5660 5656 5654 5652 5650 5648 5646 5645 5643 5640 5638 5636 5634 5632 5631 5630 5627 5625 5623 5621 5619 5617 5614 5613 5611 5610 5609 5607 5605 5605 5607 5608 5607 5606 5605 5604 5606 5607 5606
5668 5665 5661 5658 5655 5653 5650 5648 5645 5644 5641 5640 5638 5637 5635 5634 5632 5630 5629 5627 5625 5623 5621 5618 5616 5614 5611 5610 5608 5607 5607 5606 5604 5603 5605 5605 5605 5604 5602 5602 5602 5601 5602
5662 5660 5656 5653 5651 5649 5647 5644 5642 5640 5638 5636 5635 5634 5632 5631 5629 5627 5626 5624 5622 5621 5619 5616 5614 5612 5609 5606 5605 5603 5603 5602 5601 5601 5602 5603 5602 5602 5599 5600 5599 5600 5599
5657 5655 5653 5650 5648 5645 5643 5641 5639 5637 5635 5633 5632 5630 5629 5628 5626 5623 5622 5621 5619 5618 5616 5614 5612 5608 5605 5602 5601 5600 5599 5598 5598 5598 5598 5599 5599 5597 5596 5596 5595 5595 5596
5653 5651 5650 5647 5645 5642 5640 5638 5636 5634 5632 5630 5629 5627 5626 5625 5620 5616 5614 5616 5616 5614 5613 5611 5610 5608 5604 5599 5596 5594 5592 5592 5593 5592 5593 5592 5592 5593 5591 5589 5590 5590 5590
5650 5649 5647 5644 5642 5639 5638 5636 5634 5631 5629 5627 5626 5625 5623 5620 5616 5613 5610 5611 5612 5611 5610 5608 5608 5607 5602 5600 5597 5593 5591 5588 5585 5586 5588 5587 5587 5588 5585 5584 5584 5583 5583
5647 5646 5644 5642 5639 5637 5635 5633 5631 5629 5627 5625 5624 5623 5621 5619 5614 5611 5608 5609 5610 5609 5607 5606 5604 5601 5599 5594 5593 5593 5592 5591 5587 5585 5584 5583 5583 5581 5579 5577 5578 5578 5579
5645 5643 5642 5640 5637 5635 5633 5630 5629 5627 5625 5624 5624 5622 5620 5617 5612 5609 5605 5608 5609 5608 5607 5605 5601 5598 5591 5587 5587 5588 5589 5588 5586 5582 5579 5577 5574 5572 5570 5571 5573 5575 5576
5643 5641 5640 5638 5636 5634 5631 5629 5628 5626 5625 5624 5623 5620 5619 5616 5611 5607 5603 5608 5607 5607 5605 5603 5598 5592 5587 5582 5583 5583 5583 5583 5582 5581 5577 5575 5574 5572 5568 5566 5569 5570 5571
5642 5640 5638 5636 5634 5632 5630 5628 5627 5626 5624 5622 5620 5619 5617 5614 5610 5605 5602 5603 5604 5603 5603 5601 5597 5588 5583 5579 5576 5577 5576 5574 5576 5576 5577 5576 5574 5572 5570 5567 5565 5564 5565
5640 5638 5636 5634 5634 5633 5629 5627 5626 5624 5622 5620 5619 5618 5618 5614 5609 5605 5600 5597 5595 5596 5597 5597 5593 5584 5580 5577 5575 5573 5570 5568 5572 5574 5574 5572 5570 5568 5567 5565 5563 5561 5560
5638 5636 5635 5633 5632 5631 5629 5627 5625 5624 5623 5622 5620 5619 5617 5615 5610 5603 5599 5596 5593 5592 5593 5589 5584 5580 5577 5577 5574 5570 5568 5569 5570 5569 5567 5566 5565 5564 5562 5560 5560 5558 5558
5637 5635 5634 5633 5631 5629 5628 5628 5625 5623 5622 5621 5619 5617 5615 5612 5609 5604 5601 5599 5594 5592 5590 5587 5582 5579 5576 5573 5572 5571 5569 5567 5565 5563 5562 5562 5560 5559 5558 5558 5557 5557 5556
5637 5636 5635 5634 5632 5629 5628 5625 5623 5620 5617 5614 5614 5613 5610 5607 5600 5591 5590 5592 5589 5586 5582 5584 5584 5582 5579 5575 5573 5570 5567 5565 5562 5559 5558 5556 5555 5555 5555 5554 5553 5552 5552
5637 5636 5637 5635 5632 5632 5629 5626 5618 5616 5611 5608 5605 5603 5602 5597 5592 5589 5586 5583 5580 5577 5577 5581 5579 5576 5572 5570 5567 5565 5563 5560 5557 5554 5552 5550 5550 5550 5549 5550 5548 5547 5546
5637 5636 5636 5635 5634 5632 5630 5627 5623 5616 5611 5608 5604 5600 5596 5593 5590 5586 5584 5581 5579 5575 5577 5577 5573 5569 5566 5564 5562 5559 5557 5554 5551 5549 5547 5545 5544 5543 5543 5543 5543 5541 5541
5638 5636 5635 5634 5633 5632 5630 5627 5625 5622 5618 5615 5607 5600 5595 5592 5588 5585 5582 5581 5582 5578 5575 5572 5567 5563 5560 5557 5554 5552 5550 5548 5545 5542 5540 5538 5536 5536 5536 5536 5536 5534 5534
5639 5638 5635 5635 5633 5632 5629 5627 5625 5621 5618 5615 5612 5604 5596 5592 5587 5583 5580 5581 5579 5576 5572 5567 5563 5559 5555 5551 5548 5545 5542 5540 5536 5533 5532 5530 5529 5528 5528 5528 5528 5527 5525
5638 5632 5632 5634 5634 5632 5629 5626 5624 5620 5616 5613 5609 5604 5597 5594 5591 5586 5582 5579 5575 5571 5566 5562 5557 5553 5549 5545 5542 5539 5536 5533 5530 5527 5524 5522 5521 5520 5519 5519 5520 5521 5521
5642 5637 5630 5633 5633 5631 5628 5625 5622 5618 5615 5611 5607 5599 5589 5591 5589 5584 5580 5575 5570 5565 5560 5556 5552 5549 5544 5540 5536 5532 5528 5525 5521 5517 5515 5514 5513 5513 5512 5512 5512 5513 5513
5642 5640 5637 5635 5632 5629 5626 5623 5620 5617 5614 5609 5605 5600 5589 5589 5587 5582 5577 5571 5566 5560 5556 5551 5548 5544 5538 5534 5529 5525 5520 5516 5512 5508 5506 5505 5505 5505 5505 5505 5505 5504 5504
5640 5639 5636 5633 5631 5624 5624 5622 5619 5616 5612 5608 5604 5599 5594 5589 5585 5579 5573 5567 5562 5557 5552 5547 5543 5538 5532 5527 5523 5518 5513 5508 5503 5500 5498 5498 5498 5498 5498 5497 5496 5496 5496
5640 5638 5636 5632 5629 5627 5624 5620 5618 5614 5610 5605 5601 5596 5591 5586 5581 5575 5570 5565 5560 5555 5549 5544 5538 5533 5527 5521 5517 5512 5505 5498 5494 5493 5491 5490 5490 5490 5491 5490 5490 5489 5489
5640 5637 5635 5632 5629 5626 5622 5619 5615 5611 5607 5603 5598 5594 5590 5584 5579 5573 5567 5562 5557 5552 5546 5540 5534 5529 5523 5517 5511 5504 5497 5492 5488 5485 5484 5485 5484 5483 5483 5482 5482 5482 5481
5638 5635 5633 5631 5627 5623 5620 5616 5612 5608 5604 5600 5596 5592 5587 5582 5576 5570 5564 5559 5554 5549 5543 5537 5531 5525 5518 5513 5505 5498 5492 5488 5484 5481 5478 5479 5478 5477 5476 5476 5476 5475 5475